CW9939 Weather Reports


time (UTC)temp
C
wind
direction
speed
KPH
gust
KPH
rain 1hr
cm
rain 24hr
cm
rain mn
cm
humidity
%
barometer
mb
20260507130103 10 0 0.0 0.0 0.00 0.00 0.00 91 1016.1
20260507124559 10 0 0.0 0.0 0.00 0.00 0.00 90 1015.8
20260507123108 10 0 0.0 0.0 0.00 0.00 0.00 91 1015.7
20260507121609 10 0 0.0 0.0 0.00 0.00 0.00 90 1015.9
20260507120059 10 0 0.0 0.0 0.00 0.00 0.00 90 1015.9
20260507114601 10 0 0.0 0.0 0.00 0.00 0.00 90 1015.8
20260507113100 10 0 0.0 0.0 0.00 0.00 0.00 90 1015.9
20260507111559 10 0 0.0 0.0 0.00 0.00 0.00 90 1016.0
20260507110122 10 0 0.0 0.0 0.00 0.00 0.00 90 1016.0
20260507104602 10 0 0.0 0.0 0.00 0.00 0.00 90 1016.1
20260507103059 10 0 0.0 0.0 0.00 0.00 0.00 90 1016.2
20260507101601 10 0 0.0 1.6 0.00 0.00 0.00 90 1016.2
20260507094610 10 51 0.0 3.2 0.00 0.00 0.00 90 1016.5
20260507093105 11 0 0.0 1.6 0.00 0.00 0.00 90 1016.8
20260507091641 10 51 0.0 3.2 0.00 0.00 0.00 89 1016.7
20260507090108 10 0 0.0 0.0 0.00 0.00 0.00 89 1016.8
20260507084606 10 0 0.0 1.6 0.00 0.00 0.00 89 1017.0
20260507083100 10 0 0.0 0.0 0.00 0.00 0.00 89 1017.2
20260507081602 10 0 0.0 0.0 0.00 0.00 0.00 88 1017.3
20260507080058 10 0 0.0 0.0 0.00 0.00 0.00 88 1017.4
20260507074600 11 0 0.0 1.6 0.00 0.00 0.00 88 1017.4
20260507073102 11 51 0.0 1.6 0.00 0.00 0.00 88 1017.5
20260507071602 11 0 0.0 0.0 0.00 0.00 0.00 87 1017.5
20260507070108 11 0 0.0 1.6 0.00 0.00 0.00 87 1017.6
20260507064605 11 0 0.0 1.6 0.00 0.00 0.00 87 1017.7
20260507063100 11 0 0.0 0.0 0.00 0.00 0.00 87 1017.6
20260507061600 11 0 0.0 0.0 0.00 0.00 0.00 87 1017.7
20260507060110 11 0 0.0 1.6 0.00 0.00 0.00 86 1017.8
20260507054559 11 0 0.0 0.0 0.00 0.00 0.00 86 1017.7
20260507053101 11 0 0.0 1.6 0.00 0.00 0.00 85 1017.8
20260507051603 11 0 0.0 1.6 0.00 0.00 0.00 84 1017.9
20260507050104 12 0 0.0 1.6 0.00 0.00 0.00 84 1017.8
20260507044602 12 0 0.0 0.0 0.00 0.00 0.00 83 1017.7
20260507043100 12 51 0.0 0.0 0.00 0.00 0.00 82 1017.7
20260507041601 12 0 0.0 0.0 0.00 0.00 0.00 81 1017.5
20260507040105 13 0 0.0 0.0 0.00 0.00 0.00 80 1017.6
20260507034606 13 0 0.0 0.0 0.00 0.00 0.00 78 1017.4
20260507033101 13 0 0.0 0.0 0.00 0.00 0.00 77 1017.4
20260507031600 14 0 0.0 0.0 0.00 0.00 0.00 75 1017.3
20260507030058 15 0 0.0 1.6 0.00 0.00 0.00 74 1017.3
20260507024609 15 51 0.0 3.2 0.00 0.00 0.00 72 1017.1
20260507023101 16 0 0.0 4.8 0.00 0.00 0.00 71 1017.0
20260507021602 17 0 3.2 9.7 0.00 0.00 0.00 69 1016.8
20260507020058 17 59 3.2 8.0 0.00 0.00 0.00 67 1016.7
20260507014601 18 57 3.2 6.4 0.00 0.00 0.00 65 1016.7
20260507013058 18 83 4.8 12.9 0.00 0.00 0.00 64 1016.7
20260507011558 19 74 1.6 11.3 0.00 0.00 0.00 62 1016.6
20260507010114 20 44 4.8 12.9 0.00 0.00 0.00 61 1016.5
20260507004600 20 49 8.0 14.5 0.00 0.00 0.00 60 1016.4
20260507003057 21 57 6.4 16.1 0.00 0.00 0.00 58 1016.4
20260507001601 22 39 8.0 12.9 0.00 0.00 0.00 56 1016.2
20260507000107 22 77 6.4 17.7 0.00 0.00 0.00 56 1016.1
20260506234621 22 28 8.0 17.7 0.00 0.00 0.00 56 1015.9
20260506233104 22 82 6.4 16.1 0.00 0.00 0.00 57 1016.1
20260506231558 21 5 6.4 17.7 0.00 0.00 0.00 57 1016.0
20260506230059 22 36 8.0 17.7 0.00 0.00 0.00 56 1016.1
20260506224600 22 47 6.4 19.3 0.00 0.00 0.00 56 1016.1
20260506223101 22 24 6.4 17.7 0.00 0.00 0.00 55 1016.3
20260506221605 23 33 9.7 19.3 0.00 0.00 0.00 54 1016.3
20260506220100 23 56 8.0 17.7 0.00 0.00 0.00 54 1016.3
20260506214607 23 24 9.7 16.1 0.00 0.00 0.00 51 1016.4
20260506213058 23 57 8.0 17.7 0.00 0.00 0.00 53 1016.5
20260506211600 23 63 9.7 19.3 0.00 0.00 0.00 52 1016.6
20260506204611 22 63 6.4 14.5 0.00 0.00 0.00 44 1017.0
20260506203058 22 49 4.8 14.5 0.00 0.00 0.00 46 1017.0
20260506201600 22 88 4.8 14.5 0.00 0.00 0.00 47 1017.2
20260506200058 22 51 1.6 14.5 0.00 0.00 0.00 49 1017.3
20260506194559 21 157 4.8 14.5 0.00 0.00 0.00 52 1017.4
20260506193058 21 13 4.8 16.1 0.00 0.00 0.00 52 1017.6
20260506191558 21 80 3.2 12.9 0.00 0.00 0.00 56 1017.7
20260506190059 20 30 3.2 14.5 0.00 0.00 0.00 57 1017.8
20260506184558 20 164 1.6 8.0 0.00 0.00 0.00 60 1017.9
20260506183102 18 0 4.8 16.1 0.00 0.00 0.00 59 1018.0
20260506181558 18 173 3.2 14.5 0.00 0.00 0.00 60 1018.1
20260506180057 18 159 3.2 11.3 0.00 0.00 0.00 60 1018.4
20260506174607 17 56 4.8 11.3 0.00 0.00 0.00 61 1018.3
20260506173128 17 55 4.8 16.1 0.00 0.00 0.00 64 1018.5
20260506171600 16 71 1.6 11.3 0.00 0.00 0.00 65 1018.4
20260506164600 15 74 4.8 14.5 0.00 0.00 0.00 70 1018.4
20260506163103 15 0 3.2 8.0 0.00 0.00 0.00 71 1018.2
20260506161611 13 73 3.2 8.0 0.00 0.00 0.00 75 1018.2
20260506160110 13 57 0.0 6.4 0.00 0.00 0.00 79 1018.2
20260506154602 12 57 0.0 4.8 0.00 0.00 0.00 83 1018.0
20260506153103 12 0 0.0 3.2 0.00 0.00 0.00 87 1018.1
20260506151602 11 56 0.0 1.6 0.00 0.00 0.00 89 1018.1
20260506150103 10 0 0.0 3.2 0.00 0.00 0.00 91 1018.0
20260506144613 10 0 0.0 1.6 0.00 0.00 0.00 91 1018.0
20260506143101 9 0 0.0 0.0 0.00 0.00 0.00 92 1018.1
20260506141559 8 0 0.0 1.6 0.00 0.00 0.00 92 1017.8
20260506140122 8 0 0.0 1.6 0.00 0.00 0.00 92 1017.8
20260506134559 7 0 0.0 1.6 0.00 0.08 0.00 92 1017.6
20260506133134 6 0 0.0 1.6 0.00 0.08 0.00 92 1017.4
20260506131600 6 0 0.0 1.6 0.00 0.08 0.00 91 1017.5